Weather in Tarnobrzeg

Poland     50°34′04″N   21°41′35″E
temp.,
°C
wind,
m/s
gust,
m/s
humid.,
%
clouds,
%
prec.,
mm/h
press.,
hPa
HPBL,
m
7 march, sun
sun701:00−1wsw512670 0.0 1027414
04:00−1wsw613680 0.0 1025597
07:000wsw714655 0.0 1023785
10:00+4w8135458 0.0 10211311
13:00+4w8125778 0.0 10201401
16:00+4w5106297 0.0 10171125
19:00+1wnw5137392 0.0 1017680
22:00−1w4118251 0.0 1017472
8 march, mon
mon801:000w5107868 0.0 1017635
04:00−1wnw4895100 0.7 1016502
07:00−2ne2480100 1.5 1018240
10:00+1nnw455534 0.0 10191092
13:00+3nnw454717 0.0 10201613
16:00+2nnw465366 0.0 10201431
19:00−1nnw257280 0.0 1021120
22:00−2nw237642 0.0 102267
9 march, tue
tue901:00−2nw237750 0.0 102274
04:00−2nnw1277100 0.0 1022119
07:00−1nnw1173100 0.0 1023190
10:00+1nnw2262100 0.1 1023788
13:00+2n2257100 0.4 10221031
16:00+1nne225492 0.1 10211104
19:00−1ene226396 0.1 102338
22:00−2ne126638 0.0 102421
10 march, wed
wed1001:00−2ne116526 0.0 102421
04:00−3n116220 0.0 102423
07:00−2nne115610 0.0 1025108
10:00+1sw01450 0.0 1025899
13:00+3wsw22410 0.0 10241240
16:00+3ssw23460 0.0 10221122
19:00−1sse34633 0.0 102363
22:00−1sse486366 0.0 1022211
11 march, thu
thu1101:000s496372 0.0 1019255
04:00+1s51262100 0.0 1016302
07:00+2ssw71360100 0.0 1014411
10:00+4ssw91470100 0.0 1012943
13:00+4ssw71575100 0.4 1009751
16:00+4ssw71476100 0.7 1007486
19:00+5ssw81675100 0.8 1006513
22:00+5ssw61571100 0.0 1005455